Location: Newark
(41.6500°N, 71.4833°W)
Time: 21:00:55
(UTC+00:00)

deb Explorer IX - Pass Details

Date: 27 January 2020
Orbit: 549 x 1099 km, 38.8° (Epoch: 25 February)

Event Time Altitude Azimuth Distance (km) Brightness Sun altitude
Rises 05:23:01 0° 275° (W) 3,875 - -66.4°
Reaches altitude 10° 05:25:47 10° 272° (W) 2,941 - -66.2°
Maximum altitude 05:32:57 61° 194° (SSW) 1,225 - -65.8°
Drops below altitude 10° 05:39:52 10° 116° (ESE) 2,840 - -65.3°
Sets 05:42:30 0° 113° (ESE) 3,735 - -65.1°
